<?xml version="1.0" encoding="UTF-8" standalone="no" ?>
<gpx xmlns="http://www.topografix.com/GPX/1/1" xmlns:xsi="http://www.w3.org/2001/XMLSchema-instance" xsi:schemaLocation="http://www.topografix.com/GPX/1/1 http://www.topografix.com/GPX/1/1/gpx.xsd" version="1.1" creator="VisuGPX - https://www.visugpx.com">
  <metadata>
    <name>Aravis, séjour du RCMF</name>
    <desc><![CDATA[Aravis, séjour du RCMF]]></desc>
  </metadata>
  <trk>
    <name><![CDATA[Niard]]></name>
    <trkseg>
      <trkpt lat="45.8793" lon="6.52395">
        <ele>1223.4</ele>
        <time>2003-02-06T13:08:28Z</time>
      </trkpt>
      <trkpt lat="45.88011" lon="6.52401">
        <ele>1231.6</ele>
        <time>2003-02-06T13:08:28Z</time>
      </trkpt>
      <trkpt lat="45.8797" lon="6.52305">
        <ele>1256.7</ele>
        <time>2003-02-06T13:08:28Z</time>
      </trkpt>
      <trkpt lat="45.87931" lon="6.52208">
        <ele>1278.6</ele>
        <time>2003-02-06T13:08:28Z</time>
      </trkpt>
      <trkpt lat="45.87926" lon="6.52098">
        <ele>1304.1</ele>
        <time>2003-02-06T13:08:28Z</time>
      </trkpt>
      <trkpt lat="45.87889" lon="6.52044">
        <ele>1310.5</ele>
        <time>2003-02-06T13:08:28Z</time>
      </trkpt>
      <trkpt lat="45.8788" lon="6.5194">
        <ele>1330.7</ele>
        <time>2003-02-06T13:08:28Z</time>
      </trkpt>
      <trkpt lat="45.87854" lon="6.51902">
        <ele>1332.4</ele>
        <time>2003-02-06T13:08:28Z</time>
      </trkpt>
      <trkpt lat="45.87823" lon="6.51781">
        <ele>1356.2</ele>
        <time>2003-02-06T13:08:28Z</time>
      </trkpt>
      <trkpt lat="45.87816" lon="6.51657">
        <ele>1397</ele>
        <time>2003-02-06T13:08:28Z</time>
      </trkpt>
      <trkpt lat="45.87838" lon="6.51617">
        <ele>1426</ele>
        <time>2003-02-06T13:08:28Z</time>
      </trkpt>
      <trkpt lat="45.87889" lon="6.51631">
        <ele>1443.9</ele>
        <time>2003-02-06T13:08:28Z</time>
      </trkpt>
      <trkpt lat="45.8795" lon="6.51568">
        <ele>1479.2</ele>
        <time>2003-02-06T13:08:28Z</time>
      </trkpt>
      <trkpt lat="45.88011" lon="6.51553">
        <ele>1502.3</ele>
        <time>2003-02-06T13:08:28Z</time>
      </trkpt>
      <trkpt lat="45.88121" lon="6.51681">
        <ele>1504.9</ele>
        <time>2003-02-06T13:08:28Z</time>
      </trkpt>
      <trkpt lat="45.88217" lon="6.51701">
        <ele>1513.3</ele>
        <time>2003-02-06T13:08:28Z</time>
      </trkpt>
      <trkpt lat="45.88311" lon="6.51615">
        <ele>1522.9</ele>
        <time>2003-02-06T13:08:28Z</time>
      </trkpt>
      <trkpt lat="45.88351" lon="6.51611">
        <ele>1524.5</ele>
        <time>2003-02-06T13:08:28Z</time>
      </trkpt>
      <trkpt lat="45.88369" lon="6.51674">
        <ele>1518.1</ele>
        <time>2003-02-06T13:08:28Z</time>
      </trkpt>
      <trkpt lat="45.88441" lon="6.51689">
        <ele>1540.8</ele>
        <time>2003-02-06T13:08:28Z</time>
      </trkpt>
      <trkpt lat="45.88482" lon="6.51676">
        <ele>1553.1</ele>
        <time>2003-02-06T13:08:28Z</time>
      </trkpt>
      <trkpt lat="45.88493" lon="6.51751">
        <ele>1557.4</ele>
        <time>2003-02-06T13:08:28Z</time>
      </trkpt>
      <trkpt lat="45.88565" lon="6.51798">
        <ele>1564.6</ele>
        <time>2003-02-06T13:08:28Z</time>
      </trkpt>
      <trkpt lat="45.88621" lon="6.51874">
        <ele>1568.2</ele>
        <time>2003-02-06T13:08:28Z</time>
      </trkpt>
      <trkpt lat="45.88865" lon="6.51921">
        <ele>1570.8</ele>
        <time>2003-02-06T13:08:28Z</time>
      </trkpt>
      <trkpt lat="45.88951" lon="6.51841">
        <ele>1560.4</ele>
        <time>2003-02-06T13:08:28Z</time>
      </trkpt>
      <trkpt lat="45.88952" lon="6.51821">
        <ele>1560.6</ele>
        <time>2003-02-06T13:08:28Z</time>
      </trkpt>
      <trkpt lat="45.88983" lon="6.51821">
        <ele>1554.2</ele>
        <time>2003-02-06T13:08:28Z</time>
      </trkpt>
      <trkpt lat="45.89091" lon="6.51719">
        <ele>1559.6</ele>
        <time>2003-02-06T13:08:28Z</time>
      </trkpt>
      <trkpt lat="45.89182" lon="6.51684">
        <ele>1553.5</ele>
        <time>2003-02-06T13:08:28Z</time>
      </trkpt>
      <trkpt lat="45.89244" lon="6.51708">
        <ele>1556.3</ele>
        <time>2003-02-06T13:08:28Z</time>
      </trkpt>
      <trkpt lat="45.8929" lon="6.51802">
        <ele>1564.3</ele>
        <time>2003-02-06T13:08:28Z</time>
      </trkpt>
      <trkpt lat="45.89338" lon="6.51857">
        <ele>1566.3</ele>
        <time>2003-02-06T13:08:28Z</time>
      </trkpt>
      <trkpt lat="45.89327" lon="6.51898">
        <ele>1568.4</ele>
        <time>2003-02-06T13:08:28Z</time>
      </trkpt>
      <trkpt lat="45.89406" lon="6.51969">
        <ele>1575.9</ele>
        <time>2003-02-06T13:08:28Z</time>
      </trkpt>
      <trkpt lat="45.8946" lon="6.52138">
        <ele>1578.2</ele>
        <time>2003-02-06T13:08:28Z</time>
      </trkpt>
      <trkpt lat="45.89441" lon="6.52285">
        <ele>1572</ele>
        <time>2003-02-06T13:08:28Z</time>
      </trkpt>
      <trkpt lat="45.89493" lon="6.5235">
        <ele>1566.5</ele>
        <time>2003-02-06T13:08:28Z</time>
      </trkpt>
      <trkpt lat="45.89562" lon="6.52239">
        <ele>1559.6</ele>
        <time>2003-02-06T13:08:28Z</time>
      </trkpt>
      <trkpt lat="45.89679" lon="6.5218">
        <ele>1548.9</ele>
        <time>2003-02-06T13:08:28Z</time>
      </trkpt>
      <trkpt lat="45.89728" lon="6.52213">
        <ele>1541.5</ele>
        <time>2003-02-06T13:08:28Z</time>
      </trkpt>
      <trkpt lat="45.89732" lon="6.52268">
        <ele>1533.8</ele>
        <time>2003-02-06T13:08:28Z</time>
      </trkpt>
      <trkpt lat="45.89812" lon="6.52377">
        <ele>1526.8</ele>
        <time>2003-02-06T13:08:28Z</time>
      </trkpt>
      <trkpt lat="45.89887" lon="6.52425">
        <ele>1520.9</ele>
        <time>2003-02-06T13:08:28Z</time>
      </trkpt>
      <trkpt lat="45.89894" lon="6.52471">
        <ele>1519.2</ele>
        <time>2003-02-06T13:08:28Z</time>
      </trkpt>
      <trkpt lat="45.8994" lon="6.52452">
        <ele>1512.9</ele>
        <time>2003-02-06T13:08:28Z</time>
      </trkpt>
      <trkpt lat="45.9005" lon="6.52518">
        <ele>1506.1</ele>
        <time>2003-02-06T13:08:28Z</time>
      </trkpt>
      <trkpt lat="45.90083" lon="6.52479">
        <ele>1501.3</ele>
        <time>2003-02-06T13:08:28Z</time>
      </trkpt>
      <trkpt lat="45.90214" lon="6.52589">
        <ele>1508.7</ele>
        <time>2003-02-06T13:08:28Z</time>
      </trkpt>
      <trkpt lat="45.90446" lon="6.52642">
        <ele>1524.1</ele>
        <time>2003-02-06T13:08:28Z</time>
      </trkpt>
      <trkpt lat="45.90521" lon="6.52738">
        <ele>1525.6</ele>
        <time>2003-02-06T13:08:28Z</time>
      </trkpt>
      <trkpt lat="45.9059" lon="6.52779">
        <ele>1531</ele>
        <time>2003-02-06T13:08:28Z</time>
      </trkpt>
      <trkpt lat="45.90586" lon="6.52872">
        <ele>1527.6</ele>
        <time>2003-02-06T13:08:28Z</time>
      </trkpt>
      <trkpt lat="45.90683" lon="6.52873">
        <ele>1541.1</ele>
        <time>2003-02-06T13:08:28Z</time>
      </trkpt>
      <trkpt lat="45.9072" lon="6.52918">
        <ele>1538.9</ele>
        <time>2003-02-06T13:08:28Z</time>
      </trkpt>
      <trkpt lat="45.90866" lon="6.52906">
        <ele>1567</ele>
        <time>2003-02-06T13:08:28Z</time>
      </trkpt>
      <trkpt lat="45.90946" lon="6.52942">
        <ele>1571.2</ele>
        <time>2003-02-06T13:08:28Z</time>
      </trkpt>
      <trkpt lat="45.90861" lon="6.53048">
        <ele>1563.7</ele>
        <time>2003-02-06T13:08:28Z</time>
      </trkpt>
      <trkpt lat="45.90789" lon="6.53162">
        <ele>1565.6</ele>
        <time>2003-02-06T13:08:28Z</time>
      </trkpt>
      <trkpt lat="45.90747" lon="6.53339">
        <ele>1581.4</ele>
        <time>2003-02-06T13:08:28Z</time>
      </trkpt>
      <trkpt lat="45.90734" lon="6.53506">
        <ele>1591.1</ele>
        <time>2003-02-06T13:08:28Z</time>
      </trkpt>
      <trkpt lat="45.90773" lon="6.53729">
        <ele>1620.7</ele>
        <time>2003-02-06T13:08:28Z</time>
      </trkpt>
      <trkpt lat="45.90874" lon="6.53849">
        <ele>1660.8</ele>
        <time>2003-02-06T13:08:28Z</time>
      </trkpt>
      <trkpt lat="45.90921" lon="6.53914">
        <ele>1670.1</ele>
        <time>2003-02-06T13:08:28Z</time>
      </trkpt>
      <trkpt lat="45.9089" lon="6.54028">
        <ele>1708.1</ele>
        <time>2003-02-06T13:08:28Z</time>
      </trkpt>
      <trkpt lat="45.90925" lon="6.54102">
        <ele>1737</ele>
        <time>2003-02-06T13:08:28Z</time>
      </trkpt>
      <trkpt lat="45.9098" lon="6.54148">
        <ele>1757.9</ele>
        <time>2003-02-06T13:08:28Z</time>
      </trkpt>
      <trkpt lat="45.9102" lon="6.54283">
        <ele>1786.3</ele>
        <time>2003-02-06T13:08:28Z</time>
      </trkpt>
      <trkpt lat="45.91104" lon="6.54319">
        <ele>1794.4</ele>
        <time>2003-02-06T13:08:28Z</time>
      </trkpt>
      <trkpt lat="45.91206" lon="6.54375">
        <ele>1801</ele>
        <time>2003-02-06T13:08:28Z</time>
      </trkpt>
      <trkpt lat="45.91118" lon="6.5432">
        <ele>1794.8</ele>
        <time>2003-02-06T13:08:28Z</time>
      </trkpt>
      <trkpt lat="45.9102" lon="6.5428">
        <ele>1785.7</ele>
        <time>2003-02-06T13:08:28Z</time>
      </trkpt>
      <trkpt lat="45.90976" lon="6.54189">
        <ele>1767.4</ele>
        <time>2003-02-06T13:08:28Z</time>
      </trkpt>
      <trkpt lat="45.90974" lon="6.54131">
        <ele>1752.6</ele>
        <time>2003-02-06T13:08:28Z</time>
      </trkpt>
      <trkpt lat="45.90917" lon="6.54075">
        <ele>1729.8</ele>
        <time>2003-02-06T13:08:28Z</time>
      </trkpt>
      <trkpt lat="45.90897" lon="6.54006">
        <ele>1698.4</ele>
        <time>2003-02-06T13:08:28Z</time>
      </trkpt>
      <trkpt lat="45.90922" lon="6.53966">
        <ele>1683.6</ele>
        <time>2003-02-06T13:08:28Z</time>
      </trkpt>
      <trkpt lat="45.90916" lon="6.53881">
        <ele>1666.8</ele>
        <time>2003-02-06T13:08:28Z</time>
      </trkpt>
      <trkpt lat="45.9087" lon="6.5383">
        <ele>1660.8</ele>
        <time>2003-02-06T13:08:28Z</time>
      </trkpt>
      <trkpt lat="45.90773" lon="6.53719">
        <ele>1619.7</ele>
        <time>2003-02-06T13:08:28Z</time>
      </trkpt>
      <trkpt lat="45.90596" lon="6.53641">
        <ele>1565.8</ele>
        <time>2003-02-06T13:08:28Z</time>
      </trkpt>
      <trkpt lat="45.90483" lon="6.53516">
        <ele>1528.6</ele>
        <time>2003-02-06T13:08:28Z</time>
      </trkpt>
      <trkpt lat="45.90296" lon="6.53282">
        <ele>1459.6</ele>
        <time>2003-02-06T13:08:28Z</time>
      </trkpt>
      <trkpt lat="45.90161" lon="6.53217">
        <ele>1416.2</ele>
        <time>2003-02-06T13:08:28Z</time>
      </trkpt>
      <trkpt lat="45.90015" lon="6.5308">
        <ele>1399.4</ele>
        <time>2003-02-06T13:08:28Z</time>
      </trkpt>
      <trkpt lat="45.89877" lon="6.52976">
        <ele>1381.4</ele>
        <time>2003-02-06T13:08:28Z</time>
      </trkpt>
      <trkpt lat="45.89765" lon="6.52958">
        <ele>1362.6</ele>
        <time>2003-02-06T13:08:28Z</time>
      </trkpt>
      <trkpt lat="45.89708" lon="6.52937">
        <ele>1353.4</ele>
        <time>2003-02-06T13:08:28Z</time>
      </trkpt>
      <trkpt lat="45.89678" lon="6.52893">
        <ele>1344.8</ele>
        <time>2003-02-06T13:08:28Z</time>
      </trkpt>
      <trkpt lat="45.89583" lon="6.52905">
        <ele>1336.5</ele>
        <time>2003-02-06T13:08:28Z</time>
      </trkpt>
      <trkpt lat="45.89476" lon="6.52871">
        <ele>1328.2</ele>
        <time>2003-02-06T13:08:28Z</time>
      </trkpt>
      <trkpt lat="45.89421" lon="6.5289">
        <ele>1319.6</ele>
        <time>2003-02-06T13:08:28Z</time>
      </trkpt>
      <trkpt lat="45.89346" lon="6.52858">
        <ele>1320.5</ele>
        <time>2003-02-06T13:08:28Z</time>
      </trkpt>
      <trkpt lat="45.89208" lon="6.52928">
        <ele>1300.2</ele>
        <time>2003-02-06T13:08:28Z</time>
      </trkpt>
      <trkpt lat="45.89063" lon="6.52894">
        <ele>1290.1</ele>
        <time>2003-02-06T13:08:28Z</time>
      </trkpt>
      <trkpt lat="45.88949" lon="6.52921">
        <ele>1288.6</ele>
        <time>2003-02-06T13:08:28Z</time>
      </trkpt>
      <trkpt lat="45.88729" lon="6.52795">
        <ele>1267.6</ele>
        <time>2003-02-06T13:08:28Z</time>
      </trkpt>
      <trkpt lat="45.88655" lon="6.52779">
        <ele>1261.1</ele>
        <time>2003-02-06T13:08:28Z</time>
      </trkpt>
      <trkpt lat="45.88592" lon="6.52707">
        <ele>1257.7</ele>
        <time>2003-02-06T13:08:28Z</time>
      </trkpt>
      <trkpt lat="45.8842" lon="6.526">
        <ele>1249</ele>
        <time>2003-02-06T13:08:28Z</time>
      </trkpt>
      <trkpt lat="45.8814" lon="6.5244">
        <ele>1233.3</ele>
        <time>2003-02-06T13:08:28Z</time>
      </trkpt>
      <trkpt lat="45.88074" lon="6.52464">
        <ele>1228</ele>
        <time>2003-02-06T13:08:28Z</time>
      </trkpt>
      <trkpt lat="45.88007" lon="6.52452">
        <ele>1225.5</ele>
        <time>2003-02-06T13:08:28Z</time>
      </trkpt>
      <trkpt lat="45.87946" lon="6.52461">
        <ele>1223.4</ele>
        <time>2003-02-06T13:08:28Z</time>
      </trkpt>
      <trkpt lat="45.87928" lon="6.52395">
        <ele>1223.3</ele>
        <time>2003-02-06T13:08:28Z</time>
      </trkpt>
    </trkseg>
  </trk>
</gpx>